This is the latest recevied weather packets stored in our database for station/object KB1JDX. If no packets are shown the sender has not sent any weather packets the latest 10 day(s).
| Time | Temp. | Humidity | Pressure | Rain* | Wind** | Luminosity | Snow |
|---|---|---|---|---|---|---|---|
| 1778173237 | 16.67° C | 40% | 1007.3 hPa | 0 mm | 0 m/s | - | - |
| 1778172036 | 16.11° C | 40% | 1007.6 hPa | 0 mm | 0 m/s | - | - |
| 1778170838 | 16.11° C | 40% | 1007.8 hPa | 0 mm | 0 m/s | - | - |
| 1778170768 | 16.11° C | 41% | 1007.9 hPa | 0 mm | 2.68 m/s, 33° | - | - |
| 1778169637 | 15.56° C | 42% | 1008 hPa | 0 mm | 0 m/s | - | - |
| 1778168437 | 15.56° C | 56% | 1008.2 hPa | 0 mm | 0 m/s | - | - |
| 1778167238 | 15° C | 58% | 1008.2 hPa | 0 mm | 0 m/s | - | - |
| 1778167168 | 15° C | 58% | 1008.2 hPa | 0 mm | 0 m/s | - | - |
| 1778166038 | 15° C | 64% | 1008.3 hPa | 0 mm | 0 m/s | - | - |
| 1778164838 | 13.89° C | 64% | 1008.4 hPa | 0 mm | 0 m/s | - | - |
| 1778163636 | 13.33° C | 65% | 1008.5 hPa | 0 mm | 0 m/s | - | - |
| 1778163568 | 13.33° C | 64% | 1008.4 hPa | 0 mm | 2.24 m/s, 301° | - | - |
| 1778162436 | 12.78° C | 66% | 1008.6 hPa | 0 mm | 0 m/s | - | - |
| 1778161237 | 11.67° C | 59% | 1008.6 hPa | 0 mm | 0 m/s | - | - |
| 1778160036 | 11.11° C | 30% | 1008.7 hPa | 0 mm | 0 m/s | - | - |
| 1778159968 | 11.11° C | 28% | 1008.7 hPa | 0 mm | 0 m/s | - | - |
| 1778158836 | 10.56° C | 100% | 1009 hPa | 0 mm | 0 m/s | - | - |
| 1778157636 | 10° C | 100% | 1008.6 hPa | 0 mm | 0 m/s | - | - |
| 1778156437 | 10.56° C | 100% | 1008.7 hPa | 0 mm | 0 m/s | - | - |
| 1778156367 | 10.56° C | 100% | 1008.7 hPa | 0 mm | 0 m/s | - | - |
| 1778154036 | 9.44° C | 100% | 1008.4 hPa | 0.51 mm | 0 m/s | - | - |
| 1778152836 | 9.44° C | 100% | 1008.3 hPa | 0.51 mm | 0 m/s | - | - |
| 1778152767 | 9.44° C | 100% | 1008.5 hPa | 0.51 mm | 0 m/s | - | - |
| 1778151636 | 9.44° C | 100% | 1008.4 hPa | 1.27 mm | 0 m/s | - | - |
| 1778150438 | 9.44° C | 100% | 1008.1 hPa | 1.27 mm | 0 m/s | - | - |
* Rain latest hour (hover to see other rain measurements)
** Current wind speed in m/s (hover to see current wind gust speed)